TimePDT,TemperatureF,Dew PointF,Humidity,Sea Level PressureIn,VisibilityMPH,Wind Direction,Wind SpeedMPH,Gust SpeedMPH,PrecipitationIn,Events,Conditions,WindDirDegrees,DateUTC
12:56 AM,72.0,33.1,24,29.60,10.0,SSW,8.1,-,N/A,,Clear,210,2013-04-30 07:56:00
1:56 AM,73.0,33.1,23,29.59,10.0,West,4.6,-,N/A,,Clear,280,2013-04-30 08:56:00
2:56 AM,72.0,36.0,27,29.58,10.0,WSW,8.1,-,N/A,,Clear,240,2013-04-30 09:56:00
3:56 AM,68.0,35.1,30,29.59,10.0,Calm,Calm,-,N/A,,Clear,0,2013-04-30 10:56:00
4:56 AM,63.0,33.1,33,29.59,10.0,Calm,Calm,-,N/A,,Clear,0,2013-04-30 11:56:00
5:56 AM,63.0,33.1,33,29.59,10.0,South,8.1,-,N/A,,Scattered Clouds,170,2013-04-30 12:56:00
6:56 AM,62.1,32.0,32,29.62,10.0,NNW,4.6,-,N/A,,Partly Cloudy,330,2013-04-30 13:56:00
7:56 AM,72.0,33.1,24,29.61,10.0,NNE,3.5,-,N/A,,Partly Cloudy,20,2013-04-30 14:56:00
8:56 AM,82.0,32.0,16,29.60,10.0,West,3.5,-,N/A,,Partly Cloudy,270,2013-04-30 15:56:00
9:56 AM,87.1,28.9,12,29.60,10.0,West,15.0,23.0,N/A,,Partly Cloudy,280,2013-04-30 16:56:00
10:56 AM,90.0,28.9,11,29.59,10.0,West,20.7,27.6,N/A,,Partly Cloudy,270,2013-04-30 17:56:00
11:56 AM,91.9,27.0,10,29.58,10.0,West,17.3,26.5,N/A,,Scattered Clouds,260,2013-04-30 18:56:00
12:56 PM,95.0,27.0,9,29.56,10.0,West,19.6,27.6,N/A,,Scattered Clouds,270,2013-04-30 19:56:00
1:56 PM,93.9,28.0,10,29.55,10.0,West,17.3,25.3,N/A,,Scattered Clouds,260,2013-04-30 20:56:00
2:15 PM,93.2,26.6,9,29.62,10.0,Variable,4.6,-,N/A,,Scattered Clouds,0,2013-04-30 21:15:00
2:56 PM,93.9,28.9,10,29.53,10.0,West,8.1,-,N/A,,Mostly Cloudy,280,2013-04-30 21:56:00
3:56 PM,93.9,33.1,12,29.52,10.0,West,18.4,25.3,N/A,,Mostly Cloudy,270,2013-04-30 22:56:00
4:56 PM,91.0,36.0,14,29.52,10.0,SSW,23.0,31.1,N/A,,Scattered Clouds,210,2013-04-30 23:56:00
5:56 PM,90.0,35.1,14,29.52,10.0,SSW,12.7,-,N/A,,Scattered Clouds,200,2013-05-01 00:56:00
6:56 PM,86.0,37.9,18,29.54,10.0,West,18.4,-,N/A,,Partly Cloudy,260,2013-05-01 01:56:00
7:56 PM,81.0,39.9,23,29.55,10.0,WSW,11.5,-,N/A,,Partly Cloudy,250,2013-05-01 02:56:00
8:56 PM,79.0,39.0,24,29.58,10.0,Calm,Calm,-,N/A,,Partly Cloudy,0,2013-05-01 03:56:00
9:56 PM,75.0,39.9,28,29.61,10.0,SSE,6.9,-,N/A,,Clear,160,2013-05-01 04:56:00
10:56 PM,72.0,39.9,31,29.64,10.0,South,6.9,-,N/A,,Clear,190,2013-05-01 05:56:00
11:56 PM,70.0,42.1,36,29.68,10.0,East,5.8,-,N/A,,Clear,90,2013-05-01 06:56:00